"Pseudo-MPEC" for I9Z11Kk

Created 2020 Mar 31 10:07:06 UT using Find_Orb

Click here for an explanation of pseudo-MPECs

 
 Astrometry: 
     I9Z11Kk !C2020 03 1793\[Astrometrysredacted;P2a:mFMDWclickTUm;mXK4(_e=qGW84
     I9Z11Kk !C2020 03 17/dJv'`X7D;+826Mgl@\9R.N4mmR?;;)?7d%IpnZ`Phv#/Bwl\PTdW84
     I9Z11Kk !C2020 03 17!Wp@re$k#hqaAthereuwZKf1(uS%gi/uSNwex=]u)AT!%uvs0%9AW84
     I9Z11Kk !C2020 03 17-4O2VvQL$(7forFNtuW;91qramrZWQMS^a(KqG#LKexplanationW84

Station data:
(W84) Cerro Tololo-DECam  (S30.169597 W70.806420)  Chile. 4.0-m f/2.87
   reflector + CCD.

Orbital elements:  I9Z11Kk
   Perihelion 2021 Feb 8.471472 +/- 248 TT = 11:18:55 (JD 2459253.971472)
Epoch 2020 Mar 17.0 TT = JDT 2458925.5   Earth MOID: 0.4382   Ma: 0.0665
M 228.46966067 +/- 90               (J2000 ecliptic)          AutoNEOCP
n   0.40043154 +/- 0.233            Peri.  357.58328 +/- 80
a   1.82298821 +/- 0.707            Node   330.72358 +/- 40
e   0.2049265 +/- 0.268             Incl.   22.15307 +/- 30
P   2.46/899.01d           H 20.0   G  0.15   U 11.8  SR
q 1.44940951 +/- 0.838    Q 2.19656690 +/- 34.8
From 4 observations 2020 Mar. 17 (3.7 hr); mean residual 0".05
Residuals in arcseconds: 
200317 W84  .06+  .00     200317 W84  .00   .07-    
200317 W84  .10-  .03+    200317 W84  .03+  .04+    

Ephemerides (geocentric):
Date (UTC) HH   RA              Dec         delta   r     elong  mag " sig PA
---- -- -- --  -------------   -----------  ------ ------ -----  --- ---- ---
2020 03 31 10  11 12 38.445   -20 36 03.89  1.1421 2.0833 153.2 22.6 8751   6
2020 03 31 11  11 12 34.537   -20 36 00.44  1.1422 2.0833 153.2 22.6 8877   6
2020 03 31 12  11 12 30.631   -20 35 56.96  1.1422 2.0832 153.2 22.6 9007   6
2020 03 31 13  11 12 26.727   -20 35 53.46  1.1423 2.0831 153.1 22.6 9138   6
2020 03 31 14  11 12 22.827   -20 35 49.93  1.1424 2.0831 153.1 22.6 9273   6
2020 03 31 15  11 12 18.929   -20 35 46.38  1.1424 2.0830 153.1 22.6 9410   6
2020 03 31 16  11 12 15.033   -20 35 42.80  1.1425 2.0829 153.0 22.6 9550   6
2020 03 31 17  11 12 11.141   -20 35 39.19  1.1425 2.0829 153.0 22.6 9692   6
2020 03 31 18  11 12 07.251   -20 35 35.56  1.1426 2.0828 153.0 22.6 9838   6
2020 03 31 19  11 12 03.364   -20 35 31.90  1.1426 2.0827 152.9 22.6 9987   6
2020 03 31 20  11 11 59.479   -20 35 28.22  1.1427 2.0827 152.9 22.6 169'   7
2020 03 31 21  11 11 55.597   -20 35 24.51  1.1428 2.0826 152.9 22.6 172'   7
2020 03 31 22  11 11 51.718   -20 35 20.78  1.1428 2.0825 152.9 22.6 174'   7
2020 03 31 23  11 11 47.842   -20 35 17.02  1.1429 2.0825 152.8 22.6 177'   7
2020 04 01 00  11 11 43.969   -20 35 13.23  1.1429 2.0824 152.8 22.6 180'   7
2020 04 01 01  11 11 40.098   -20 35 09.42  1.1430 2.0823 152.8 22.6 182'   7
2020 04 01 02  11 11 36.230   -20 35 05.59  1.1431 2.0822 152.7 22.6 185'   7
2020 04 01 03  11 11 32.364   -20 35 01.73  1.1431 2.0822 152.7 22.6 188'   7
2020 04 01 04  11 11 28.502   -20 34 57.84  1.1432 2.0821 152.7 22.6 191'   7
2020 04 01 05  11 11 24.642   -20 34 53.93  1.1433 2.0820 152.6 22.6 194'   7
2020 04 01 06  11 11 20.785   -20 34 49.99  1.1433 2.0820 152.6 22.6 197'   7
2020 04 01 07  11 11 16.931   -20 34 46.03  1.1434 2.0819 152.6 22.6 201'   8
2020 04 01 08  11 11 13.080   -20 34 42.05  1.1435 2.0818 152.5 22.6 204'   8
2020 04 01 09  11 11 09.231   -20 34 38.04  1.1435 2.0818 152.5 22.6 207'   8
2020 04 01 10  11 11 05.386   -20 34 34.00  1.1436 2.0817 152.5 22.6 211'   8
2020 04 01 11  11 11 01.543   -20 34 29.94  1.1436 2.0816 152.4 22.6 214'   8
2020 04 01 12  11 10 57.703   -20 34 25.85  1.1437 2.0816 152.4 22.6 218'   8
2020 04 01 13  11 10 53.866   -20 34 21.74  1.1438 2.0815 152.4 22.6 221'   8
2020 04 01 14  11 10 50.031   -20 34 17.61  1.1438 2.0814 152.3 22.6 225'   8
2020 04 01 15  11 10 46.200   -20 34 13.45  1.1439 2.0814 152.3 22.6 229'   8
2020 04 01 16  11 10 42.371   -20 34 09.26  1.1440 2.0813 152.3 22.6 233'   9
2020 04 01 17  11 10 38.546   -20 34 05.06  1.1441 2.0812 152.2 22.6 237'   9
2020 04 01 18  11 10 34.723   -20 34 00.82  1.1441 2.0811 152.2 22.6 241'   9
2020 04 01 19  11 10 30.903   -20 33 56.57  1.1442 2.0811 152.2 22.6 245'   9
2020 04 01 20  11 10 27.086   -20 33 52.28  1.1443 2.0810 152.1 22.6 249'   9
2020 04 01 21  11 10 23.272   -20 33 47.98  1.1443 2.0809 152.1 22.6 253'   9
2020 04 01 22  11 10 19.460   -20 33 43.65  1.1444 2.0809 152.1 22.6 258'   9
2020 04 01 23  11 10 15.652   -20 33 39.29  1.1445 2.0808 152.0 22.6 262'   9
2020 04 02 00  11 10 11.847   -20 33 34.91  1.1445 2.0807 152.0 22.6 267'  10
2020 04 02 01  11 10 08.044   -20 33 30.51  1.1446 2.0807 152.0 22.6 272'  10
2020 04 02 02  11 10 04.245   -20 33 26.08  1.1447 2.0806 151.9 22.6 277'  10
2020 04 02 03  11 10 00.448   -20 33 21.63  1.1448 2.0805 151.9 22.6 281'  10
2020 04 02 04  11 09 56.654   -20 33 17.16  1.1448 2.0805 151.9 22.6 287'  10
2020 04 02 05  11 09 52.864   -20 33 12.66  1.1449 2.0804 151.8 22.6 292'  10
2020 04 02 06  11 09 49.076   -20 33 08.14  1.1450 2.0803 151.8 22.6 297'  10
2020 04 02 07  11 09 45.291   -20 33 03.59  1.1451 2.0803 151.8 22.6 302'  10
2020 04 02 08  11 09 41.510   -20 32 59.02  1.1451 2.0802 151.7 22.6 308'  11
2020 04 02 09  11 09 37.731   -20 32 54.42  1.1452 2.0801 151.7 22.6 313'  11